Weather Service Report


757 
ASUS44 KLIX 290311
RWRLIX
NEW ORLEANS REGIONAL WEATHER ROUNDUP
NATIONAL WEATHER SERVICE NEW ORLEANS LA
1000 PM CDT SUN AUG 28 2016

NOTE: "FAIR" INDICATES FEW OR NO CLOUDS BELOW 12,000 FEET WITH NO
      SIGNIFICANT WEATHER AND/OR OBSTRUCTIONS TO VISIBILITY.
      SKY/WX - SKY CONDITION AND SIGNIFICANT WEATHER.
      TMP - AIR TEMPERATURE.     DP    - DEWPOINT TEMPERATURE.
      RH  - RELATIVE HUMIDITY.   PRES  - PRESSURE.
      HI  - HEAT INDEX.          WCI   - WIND CHILL INDEX.

*  THESE STATIONS ARE NOT NWS OR FAA STATIONS AND ARE NOT UNDER
   NWS QUALITY CONTROL. 

LAZ038-040-048-061>063-065>067-069-290400-
SOUTHEAST LOUISIANA
  
CITY           SKY/WX    TMP DP  RH WIND       PRES   REMARKS
N.O. AUDUBON     N/A     81  76  84 MISG        N/A                   
N.O. INTL ARPT MOCLDY    82  75  79 NE8       29.98R                  
N.O. LAKEFRONT CLOUDY    81  75  82 NE13      29.99R                  
N.O. DOWNTOWN*   N/A     80  75  84 NE9       29.99R                  
RESERVE*         N/A     80  77  90 E5        29.98R                  
SLIDELL        CLOUDY    76  76 100 NE5       29.98R                  
BATON ROUGE    CLOUDY    75  74  96 N6        29.98R                  
BOOTHVILLE     CLOUDY    80  76  87 E7        29.97R                  
BELLE CHASSE   CLOUDY    77  76  96 NE5       29.98R                  
BOGALUSA*        N/A     78  74  88 CALM      30.02R                  
GALLIANO*      PTCLDY    79  79 100 E6        29.97R                  
NEW ROADS*       N/A     75  72  91 CALM      29.99R                  
GONZALES*        N/A     76  75  97 CALM      29.97R                  
HAMMOND*       CLOUDY    75  72  88 N3        30.00R                  
HOUMA*         PTCLDY    76  74  96 NE5       29.97R                  
PORT FOURCHON* CLEAR     82  73  74 E9        29.95R                  

$$

MSZ070-080>082-290400-
SOUTHERN MISSISSIPPI
  
CITY           SKY/WX    TMP DP  RH WIND       PRES   REMARKS
MCCOMB         CLOUDY    77  74  90 CALM      30.01R                  
GULFPORT       CLOUDY    77  76  96 N5        29.99R                  
BILOXI         CLOUDY    76  76 100 NE7       29.99R                  
PASCAGOULA     MOCLDY    74  74 100 CALM      30.00R                  

$$

COASTAL OBSERVATIONS
LAKE AND NEARSHORE STATIONS
  
STATION/POSITION TIME  TEMP    WIND        PRES    WAVE
                       AIR SEA DIR/SP/G            HT/PER
                 (UTC) (F)     (DEG/KT/KT) (MB)    (FT/S)
PASCAGOULA       0200   75      10/  6/  8 1014.6
WAVELAND YACHT   0200   78 84   30/  4/  5 1014.7
GRAND ISLE       0200   81 86  100/  7/ 11 1013.9
SOUTHWEST PASS   0200           70/ 17/ 19   N/A
NEW CANAL        0200   80 85   70/  8/ 10 1013.6
SHELL BEACH      0200   80 85   60/ 12/ 14 1014.4

OFFSHORE STATIONS
  
STATION/POSITION TIME  TEMP    WIND        PRES    WAVE
                       AIR SEA DIR/SP/G            HT/PER
                 (UTC) (F)     (DEG/KT/KT) (MB)    (FT/S)
64 S DAUPHIN ISL 0200   83 85   60/ 14/ 16 1013.9

$$

  


758 
ASUS44 KLIX 290311
RWRLA 
LOUISIANA WEATHER ROUNDUP
NATIONAL WEATHER SERVICE NEW ORLEANS LA
1000 PM CDT SUN AUG 28 2016

NOTE: "FAIR" INDICATES FEW OR NO CLOUDS BELOW 12,000 FEET WITH NO
      SIGNIFICANT WEATHER AND/OR OBSTRUCTIONS TO VISIBILITY.
      SKY/WX - SKY CONDITION AND SIGNIFICANT WEATHER.
      TMP - AIR TEMPERATURE.    DP   - DEWPOINT TEMPERATURE.
      RH  - RELATIVE HUMIDITY.  PRES - PRESSURE.
      HX  - HEAT INDEX.         WCI  - WIND CHILL INDEX.

*  THESE STATIONS ARE NOT NWS OR FAA STATIONS AND ARE NOT UNDER
   NWS QUALITY CONTROL.

LAZ040-048-061>063-065-066-069-290400-
SOUTHEAST LOUISIANA
  
CITY           SKY/WX    TMP DP  RH WIND       PRES   REMARKS
N.O. AUDUBON     N/A     81  76  84 MISG        N/A                   
N.O. INTL ARPT MOCLDY    82  75  79 NE8       29.98R                  
N.O. LAKEFRONT CLOUDY    81  75  82 NE13      29.99R                  
N.O. DOWNTOWN* FAIR      80  75  84 NE9       29.99R                  
RESERVE*       FAIR      80  77  90 E5        29.98R                  
SLIDELL        CLOUDY    76  76 100 NE5       29.98R                  
BATON ROUGE    CLOUDY    75  74  96 N6        29.98R                  
BOOTHVILLE     CLOUDY    80  76  87 E7        29.97R                  
BELLE CHASSE   CLOUDY    77  76  96 NE5       29.98R                  
BOGALUSA*      FAIR      78  74  88 CALM      30.02R                  
GALLIANO*      PTCLDY    79  79 100 E6        29.97R                  
NEW ROADS*     FAIR      75  72  91 CALM      29.99R                  
GONZALES*      FAIR      76  75  97 CALM      29.97R                  
HAMMOND*       CLOUDY    75  72  88 N3        30.00R                  
HOUMA*         PTCLDY    76  74  96 NE5       29.97R                  
PORT FOURCHON* CLEAR     82  73  74 E9        29.95R                  

$$

LAZ041-044-053-054-290400-
SOUTHWEST LOUISIANA
  
CITY           SKY/WX    TMP DP  RH WIND       PRES   REMARKS
LAKE CHARLES   CLOUDY    76  75  97 N8        29.96R                  
LAFAYETTE      CLEAR     77  73  87 NE3       29.97R                  
PATTERSON      PTCLDY    77  75  93 E6        29.97R                  
SALT POINT       N/A     78  75  90 CALM      29.95R                  
NEW IBERIA     CLEAR     78  72  81 E8        29.98R                  
CHENAULT AIRPK CLEAR     75  73  94 CALM      29.94S                  

$$

LAZ027-028-290400-
CENTRAL LOUISIANA
  
CITY           SKY/WX    TMP DP  RH WIND       PRES   REMARKS
FORT POLK      CLEAR     79  73  81 E8        29.99R                  
ALEXANDRIA INT PTCLDY    77  70  79 SE8       29.97S                  
ALEXANDRIA     MOCLDY    76  73  91 CALM      29.99S                  

$$

LAZ001-002-290400-
NORTHWEST LOUISIANA
  
CITY           SKY/WX    TMP DP  RH WIND       PRES   REMARKS
SHREVEPORT     MOCLDY    78  76  93 NW7       30.00R                  
BARKSDALE AFB  MOCLDY    76  76 100 N5        30.00R                  
DTN SHREVEPORT MOCLDY    77  74  90 NW6       30.01R                  

$$

LAZ014-016-290400-
NORTHEAST LOUISIANA
  
CITY           SKY/WX    TMP DP  RH WIND       PRES   REMARKS
MONROE         PTCLDY    79  77  94 CALM      30.01S                  
TALLULAH       MOCLDY    79  72  79 CALM      30.00S                  

$$

  

Return to Home page


Western Regional Climate Center, wrcc@dri.edu